Wind_Speed
23 25 24 25 26 24 23 23 24 25 25 25 24 24 23 22 20 18 17 16 15 14 14 14 15 16 16 17 16 14 12 13 13 10 9 9 9 8 8 9 8 7 6 5 4 4 6 7 6 5 6 6 6 5 4 3 3 2 2 2 3 4
23 25 24 25 25 20 17 18 20 22 23 22 23 24 24 22 19 18 17 15 14 14 14 15 16 16 16 17 17 15 12 13 12 10 9 10 9 9 9 10 9 7 6 5 5 4 6 8 7 6 6 6 5 4 3 3 3 3 2 3 3 4
23 20 14 13 11 9 8 10 13 15 17 17 19 21 23 22 20 18 17 15 14 14 14 15 16 16 17 18 18 15 13 12 11 10 10 10 10 10 10 10 9 7 7 7 7 7 7 7 6 6 7 6 5 4 3 2 3 3 4 4 3 4
16 14 11 11 8 7 8 10 11 11 12 13 13 15 19 20 19 18 16 15 15 14 14 15 15 16 17 18 18 16 13 12 11 10 10 10 10 10 10 10 8 7 7 8 9 9 7 6 6 6 7 7 6 5 4 3 4 4 4 4 4 4
17 16 16 16 12 12 13 14 13 10 8 8 8 9 14 17 16 16 16 16 15 15 15 15 15 15 16 17 18 16 12 11 11 11 10 10 10 10 10 9 8 8 8 8 9 9 6 5 6 7 8 7 6 6 6 4 5 6 5 4 4 4
23 26 25 18 15 14 14 15 14 12 9 7 7 7 11 12 13 14 15 15 15 15 16 16 16 15 15 16 16 14 12 11 11 11 11 10 9 9 9 8 8 8 8 8 9 9 7 6 6 7 7 6 5 6 8 6 5 6 5 4 5 5
22 25 27 22 18 15 14 14 14 13 11 9 8 9 12 12 12 13 14 15 15 15 16 17 16 15 15 14 14 13 12 11 10 10 10 10 9 9 9 8 7 7 8 9 9 9 9 7 4 4 5 4 5 7 10 8 5 6 6 5 6 6
20 19 21 21 18 16 15 14 14 14 14 12 11 12 14 14 14 14 15 15 15 15 16 17 15 15 15 15 15 15 14 12 11 11 11 10 9 9 9 8 7 7 8 9 9 9 10 8 3 1 2 4 5 7 10 10 7 5 7 8 9 9
26 24 22 19 16 13 14 15 16 17 17 15 14 14 15 15 15 15 16 16 15 15 16 17 16 16 16 16 17 16 15 13 11 11 11 10 9 9 9 8 8 7 8 9 10 10 10 6 3 1 3 5 6 6 9 10 8 6 8 11 12 12
29 29 25 20 15 12 13 16 18 19 19 18 16 16 16 15 16 16 16 16 16 16 16 17 17 17 17 17 17 17 15 13 12 12 11 10 10 9 9 9 9 8 8 11 12 11 8 5 3 3 4 6 6 5 6 8 8 6 7 9 11 12
29 29 27 22 16 13 15 18 19 19 19 18 18 17 17 17 17 17 16 16 16 16 16 17 17 16 16 16 17 17 16 14 13 12 12 10 10 9 9 10 9 9 10 13 13 9 6 5 4 5 4 5 6 5 4 5 6 6 7 7 8 10
29 29 27 23 17 14 17 20 20 20 19 18 17 18 19 19 19 19 18 17 16 16 16 15 15 15 15 15 16 17 17 16 14 13 11 10 10 10 10 10 10 11 11 13 12 7 5 5 5 5 5 4 4 3 3 3 3 4 5 6 7 8
28 28 27 23 19 16 18 20 20 20 20 19 17 17 19 20 20 20 19 17 16 16 15 14 15 15 16 15 16 18 18 16 14 12 11 11 10 10 11 12 12 12 11 12 11 7 5 5 5 6 6 5 3 2 2 2 3 3 5 6 7 8
27 27 25 23 20 18 19 21 21 20 21 20 19 18 18 19 20 21 19 18 17 16 15 14 15 16 16 17 17 17 16 15 13 11 11 11 11 12 12 13 13 12 11 11 10 7 5 5 5 6 6 4 1 1 1 1 2 3 5 6 6 7
25 25 24 22 21 20 19 21 22 21 21 21 19 18 19 19 20 21 20 19 18 16 15 14 15 16 17 17 17 18 16 13 11 11 11 11 11 12 14 14 13 11 10 11 10 8 6 5 6 6 5 2 0 0 1 1 2 3 5 4 4 4
23 24 24 23 22 20 19 20 21 21 21 22 21 21 21 21 21 21 21 19 18 17 15 15 15 15 16 18 19 19 16 13 11 11 11 11 11 13 15 14 12 10 10 10 9 6 5 5 6 6 4 1 0 1 1 1 3 4 4 3 3 3
22 23 24 24 22 20 19 19 20 20 21 22 23 23 22 22 22 22 21 20 19 17 16 15 15 14 15 18 20 18 16 14 12 12 11 11 13 14 15 14 11 10 10 9 7 5 4 5 5 5 3 1 1 1 2 3 4 4 3 3 3 2
21 22 23 24 22 20 20 20 20 20 21 22 22 22 22 22 23 23 21 20 18 17 16 16 15 14 15 18 20 18 15 14 14 13 13 13 14 15 15 13 10 9 9 8 6 4 4 4 4 5 4 2 1 2 2 2 3 3 2 2 3 2
20 21 23 24 20 20 22 21 20 20 21 21 21 21 21 21 24 24 22 20 18 17 17 16 16 16 16 17 18 18 15 15 14 14 14 14 14 15 15 13 10 9 9 7 6 5 5 4 4 5 5 3 2 3 3 2 2 2 1 1 2 3
20 21 23 23 20 21 23 21 21 21 20 21 21 21 21 21 24 24 22 21 19 18 17 16 17 18 18 17 16 17 17 16 15 15 15 15 14 15 14 12 10 9 8 7 5 5 5 4 5 5 5 4 3 3 3 2 2 1 1 0 1 1
20 21 23 25 23 21 22 21 22 22 21 23 24 24 23 21 24 24 22 21 19 18 18 17 18 18 18 17 16 17 17 16 15 16 16 15 14 14 13 12 11 9 8 6 5 5 5 5 5 5 5 4 4 4 4 3 2 2 2 2 2 2
22 22 23 26 24 21 21 20 20 21 22 25 27 26 25 23 24 25 22 20 19 18 17 16 17 18 18 18 18 19 18 16 17 17 16 15 14 14 13 12 11 9 8 7 6 6 6 5 5 5 5 5 4 4 4 4 3 3 3 3 2 3
23 23 24 25 24 22 21 21 20 20 20 24 28 27 25 24 24 24 22 20 19 17 16 15 16 16 17 18 20 20 18 17 18 17 17 15 14 13 13 12 11 10 9 7 7 7 6 5 5 5 5 6 5 5 5 5 4 4 4 3 3 3
23 23 24 24 24 22 21 21 19 18 19 23 27 27 24 23 23 23 22 21 20 18 17 17 17 17 17 18 19 20 18 18 19 18 17 15 13 13 13 12 12 11 10 8 7 7 6 6 6 6 6 7 6 6 6 6 5 5 5 4 4 4
22 21 23 25 25 24 22 20 17 16 18 19 23 24 22 21 23 24 22 21 20 19 19 18 17 18 17 17 18 19 18 19 19 18 17 15 14 14 14 13 13 12 10 9 8 8 7 7 7 7 7 8 8 7 7 6 5 6 6 5 5 4
22 21 22 25 27 26 23 20 18 15 15 16 19 20 20 20 23 24 23 22 20 19 19 18 18 18 17 17 19 20 20 20 20 19 17 16 15 15 15 14 12 11 11 10 10 9 8 8 8 8 9 8 8 8 7 6 6 6 6 6 6 5
23 21 22 25 28 27 24 21 19 17 14 17 21 21 19 20 22 22 22 21 19 18 18 18 19 19 18 19 20 21 21 20 20 19 17 17 16 16 15 14 13 12 12 11 11 10 10 9 9 10 10 9 8 8 7 7 7 7 7 7 6 6
23 21 22 26 29 28 24 21 20 19 15 14 18 20 19 19 21 21 21 21 18 18 18 19 19 19 19 20 21 21 20 20 20 19 19 18 17 16 16 15 14 13 12 12 12 11 11 10 10 11 10 8 8 7 7 7 8 8 7 7 7 7
23 22 24 27 28 26 22 20 21 20 15 12 14 16 16 17 20 21 21 20 18 18 19 19 19 20 20 20 20 19 19 20 20 19 19 19 18 18 17 16 15 14 14 13 13 12 12 11 11 11 10 9 8 8 8 8 8 8 8 8 8 8
23 22 25 27 27 24 21 19 20 20 18 15 15 14 13 14 17 20 20 18 17 19 19 20 20 20 21 20 19 18 19 20 20 20 20 19 19 18 17 17 16 15 14 14 15 14 13 12 12 11 10 10 9 9 9 9 9 9 9 9 9 9
22 20 23 26 26 25 23 20 19 20 19 17 16 15 13 12 14 17 19 17 17 18 19 20 21 21 21 20 19 19 20 20 20 20 20 20 20 19 18 17 16 15 15 15 16 15 14 13 12 12 11 11 10 9 10 10 10 11 10 10 10 10
22 21 24 27 27 26 26 23 20 20 20 19 17 15 14 13 13 14 16 16 15 17 18 19 21 22 22 21 21 20 20 20 19 20 20 20 20 18 17 17 16 16 16 16 16 15 15 14 12 12 12 11 10 10 10 11 11 12 12 12 11 11
24 24 26 29 27 25 25 24 21 20 22 20 18 16 16 15 14 13 13 14 15 16 18 19 20 22 23 22 22 21 20 20 20 20 20 20 20 19 18 17 17 18 17 17 15 15 14 14 13 13 12 11 11 11 12 13 13 13 13 13 13 12
26 26 27 29 29 26 25 25 22 21 23 21 16 15 18 18 16 14 13 13 15 17 18 19 21 22 23 22 21 21 21 21 21 21 21 21 20 19 19 19 19 18 17 16 15 15 15 14 14 13 12 12 12 12 13 14 14 14 14 14 13 13
29 30 30 32 32 30 28 26 23 22 24 23 17 13 17 19 18 16 14 15 17 18 19 20 20 22 23 22 21 21 22 22 22 22 22 22 21 20 21 20 20 19 18 17 16 16 15 15 15 14 13 13 13 13 14 14 14 14 15 14 14 13
32 33 33 33 34 33 31 28 24 22 24 25 21 13 13 16 19 18 16 18 20 21 21 20 20 22 22 22 22 22 22 23 23 23 23 22 22 22 22 21 20 20 18 17 16 16 16 15 15 15 14 14 14 14 14 13 13 14 14 14 14 13
33 33 31 30 30 31 30 26 23 22 22 24 22 15 11 13 17 19 19 19 22 23 22 21 22 23 23 23 22 22 22 23 23 23 23 23 23 23 23 22 21 20 19 18 17 16 16 16 16 16 16 16 15 15 14 13 13 13 14 13 13 13
Wind_Direction
279 276 274 274 274 276 274 271 271 271 270 270 271 270 269 271 271 271 270 271 272 272 273 276 281 284 285 284 281 282 282 283 287 288 284 281 280 282 281 278 278 282 288 302 322 344 340 336 327 295 285 299 313 310 297 301 296 275 264 280 294 290
277 278 282 280 272 273 275 274 276 275 275 274 274 271 266 265 265 265 266 269 271 270 271 274 279 282 283 281 279 279 278 281 282 278 274 273 275 276 275 275 277 282 287 295 296 299 311 311 308 301 294 300 315 317 303 289 272 263 257 254 268 275
277 271 280 297 279 271 284 290 289 282 278 276 276 271 261 259 262 264 267 269 270 268 270 275 278 280 280 279 278 278 277 278 273 269 270 269 273 275 274 275 279 285 284 287 280 272 283 291 293 300 301 306 318 314 291 269 259 252 248 245 248 262
261 238 262 308 306 294 304 314 309 292 280 274 277 271 257 256 261 267 269 269 268 266 270 275 278 278 278 278 278 278 277 271 264 266 268 266 270 274 275 277 283 289 283 278 274 271 275 280 286 292 298 305 308 293 265 246 254 248 243 248 253 253
244 244 283 310 309 298 299 307 309 297 278 266 271 264 252 254 262 268 269 269 269 267 269 273 277 278 278 280 278 278 273 262 262 266 262 260 266 272 276 281 287 288 280 274 271 274 274 273 286 296 304 305 300 281 258 247 247 246 246 255 269 267
265 269 284 304 313 304 297 295 294 288 274 261 257 247 245 252 262 270 269 268 269 268 270 272 274 276 278 279 277 273 265 258 261 262 255 255 262 269 277 281 283 282 280 276 272 273 272 270 283 299 304 298 287 263 247 251 248 240 247 265 275 278
282 280 280 293 308 307 300 291 286 283 275 261 248 243 247 253 261 270 272 268 266 267 269 270 272 273 272 271 271 268 263 259 258 253 249 251 258 266 273 274 275 276 278 277 274 271 269 269 271 290 294 278 266 245 240 255 263 238 248 281 285 281
284 292 290 295 303 305 299 289 284 281 276 267 251 245 249 254 260 268 273 269 265 265 266 267 269 269 266 264 266 266 262 257 251 245 245 248 255 262 266 267 267 267 272 276 276 271 268 267 263 246 238 243 248 237 236 257 282 262 252 268 280 284
279 292 300 301 302 302 292 282 276 273 273 272 261 249 247 251 256 264 269 267 264 263 264 266 267 266 265 263 263 263 258 250 243 240 243 247 251 256 259 261 260 260 266 270 265 260 262 268 279 237 206 227 247 243 237 254 277 277 260 264 271 277
282 291 300 303 302 295 282 271 267 265 264 265 261 254 252 251 252 258 262 261 262 262 262 264 266 266 265 261 257 256 251 242 238 238 241 245 248 251 254 256 256 253 253 255 252 250 261 277 289 266 225 226 242 251 250 251 257 266 275 276 272 269
286 291 296 300 299 286 270 261 260 261 260 259 259 259 260 256 252 253 255 256 259 259 260 264 266 265 263 257 250 249 244 237 235 236 239 242 243 246 249 251 250 244 239 245 248 248 259 274 274 265 248 233 236 249 260 250 252 270 286 284 276 272
286 288 292 297 297 281 266 262 262 262 264 264 263 264 263 261 255 251 250 253 255 254 256 261 263 261 259 254 248 244 237 233 233 234 237 237 238 241 243 244 241 235 233 240 249 248 247 258 264 259 244 230 227 236 245 250 267 283 287 280 276 278
284 287 291 295 294 281 269 266 265 264 266 266 267 267 263 260 254 248 247 248 247 246 250 255 257 256 253 250 247 240 230 229 232 233 234 233 233 235 237 236 232 229 230 238 246 242 232 245 257 251 236 225 223 230 228 257 293 292 288 285 283 284
286 289 293 294 291 283 272 268 267 265 266 266 266 265 262 257 249 245 246 243 238 239 244 248 250 251 247 244 241 229 220 225 231 231 233 232 229 228 229 230 228 226 228 235 239 230 221 231 240 240 236 230 220 231 236 278 303 306 297 292 289 286
289 292 294 294 291 286 278 273 272 270 269 268 264 261 258 255 248 243 241 235 232 234 240 244 246 248 243 236 229 220 219 228 231 232 234 232 227 226 228 228 226 223 222 228 230 221 210 215 226 234 239 244 117 209 258 289 315 324 312 299 292 286
290 292 294 295 292 291 286 279 274 271 268 264 260 257 254 252 248 239 234 228 226 230 236 240 241 244 239 230 223 219 222 229 233 233 231 229 227 228 231 230 224 217 214 220 224 216 200 204 219 231 237 239 262 279 312 320 334 336 327 322 313 303
287 291 294 294 294 295 290 281 275 269 265 259 255 254 251 251 245 232 225 222 223 228 233 235 235 237 235 224 217 217 221 228 234 230 225 224 225 230 234 232 224 212 208 212 215 208 196 201 218 236 242 235 245 289 325 330 338 343 345 355 357 344
288 293 296 295 296 295 286 280 276 270 266 259 252 251 250 247 238 224 217 218 221 225 229 229 228 232 229 215 211 216 222 229 232 225 220 218 222 230 234 232 223 210 208 207 203 200 198 204 226 250 263 269 268 277 301 319 330 340 356 28 47 62
292 297 298 295 295 289 283 281 277 273 269 260 251 252 254 243 227 216 212 215 218 222 226 225 224 228 223 215 218 224 226 230 228 222 219 217 219 228 233 233 224 210 207 205 197 201 208 215 232 250 263 271 272 270 279 290 304 316 347 72 71 83
294 297 294 292 292 285 282 281 277 275 268 257 251 254 255 236 216 210 209 212 215 219 222 221 222 224 222 221 227 228 228 229 224 221 220 216 216 225 232 233 227 215 209 209 203 204 215 224 232 242 256 268 269 267 270 265 256 266 259 127 89 92
290 289 286 287 292 290 284 281 277 276 264 250 250 254 251 232 211 206 208 211 215 216 218 221 220 219 219 222 225 227 229 227 223 221 220 215 212 220 230 231 229 221 214 217 212 209 223 230 235 243 252 261 266 266 267 260 230 221 225 193 129 117
283 279 278 282 288 288 284 282 278 276 265 246 244 247 241 227 211 204 204 208 211 212 215 218 213 211 216 220 223 225 225 223 223 222 217 213 211 216 224 227 227 225 220 218 213 218 230 232 237 251 257 256 257 256 250 241 227 214 208 191 150 133
280 277 277 278 280 281 281 284 279 277 268 243 238 241 232 220 211 202 199 203 206 208 211 211 209 211 218 222 224 223 221 220 222 220 215 212 212 215 220 221 222 226 228 222 218 227 236 236 240 248 253 251 247 240 234 229 221 212 206 188 169 167
280 280 277 275 277 277 277 283 280 278 273 244 233 237 228 215 211 202 197 201 204 207 207 209 214 216 221 227 227 224 221 220 218 216 215 213 213 215 217 217 216 220 226 227 228 235 239 239 240 243 245 244 241 236 235 230 212 199 197 191 185 191
276 277 275 274 275 273 274 280 278 275 269 240 224 230 227 217 213 204 199 201 203 207 208 209 214 216 222 228 227 222 219 219 217 214 214 213 213 214 215 216 214 213 217 222 230 237 240 239 240 243 244 240 238 237 233 224 210 199 198 203 208 203
269 270 269 269 270 270 270 274 274 271 260 239 230 231 226 219 215 208 204 204 205 208 208 208 212 216 221 223 220 216 214 216 216 213 213 214 214 213 214 216 215 213 214 218 226 232 236 239 240 243 244 239 236 236 232 223 218 216 213 213 214 206
266 265 263 263 264 265 264 266 268 265 252 247 243 235 230 226 220 213 209 209 210 210 209 209 212 215 217 216 213 211 211 214 213 212 213 214 214 212 212 214 214 213 217 221 226 230 232 235 238 241 243 241 238 236 234 229 225 223 217 209 207 209
267 263 259 259 260 261 260 260 263 261 253 252 244 237 239 237 224 217 215 214 210 208 208 209 212 214 213 213 210 210 212 212 210 211 213 214 214 212 211 213 214 213 219 227 230 233 234 234 238 242 245 244 241 238 233 229 226 221 216 211 207 213
271 268 261 258 258 260 261 258 262 262 254 248 241 238 247 245 231 224 221 218 210 203 206 210 214 215 213 214 213 211 213 212 211 212 213 214 214 212 211 213 215 216 221 229 233 235 235 234 238 242 245 244 241 238 233 229 227 224 221 218 214 215
271 271 266 264 264 267 268 262 262 261 253 248 244 241 251 256 244 233 228 224 214 206 208 213 215 215 213 214 212 211 213 214 213 214 215 215 215 214 212 213 217 221 224 229 232 233 233 233 235 239 242 240 238 237 236 233 233 234 234 230 228 225
265 265 264 267 271 273 272 266 261 258 255 254 249 240 242 252 252 245 238 231 221 216 217 216 213 211 210 210 209 210 213 215 214 215 216 216 216 214 214 216 220 225 229 230 231 233 233 231 231 235 239 240 237 237 239 239 238 241 243 242 241 234
261 254 253 259 267 271 269 265 260 256 254 256 252 241 235 240 248 250 242 233 230 229 224 217 211 207 206 206 207 208 210 212 213 215 216 216 216 216 217 221 223 227 232 232 232 233 233 231 228 231 236 239 239 240 243 246 246 247 249 248 246 237
261 256 251 252 257 261 262 260 256 252 250 251 251 240 230 231 237 241 239 235 234 228 218 213 210 207 204 204 204 204 207 210 213 216 216 215 216 219 221 224 227 230 233 234 232 230 231 231 229 231 234 238 241 244 247 251 251 251 250 249 247 240
256 256 254 252 251 251 252 252 248 245 244 244 247 242 231 225 223 227 234 233 229 223 215 213 212 210 208 205 203 203 206 210 214 216 216 216 217 221 225 228 231 233 234 233 231 229 229 229 230 231 233 238 243 246 248 251 253 251 249 248 247 241
250 249 248 248 247 245 243 242 240 238 236 236 241 245 237 228 218 217 226 227 224 223 219 215 214 215 212 205 204 207 208 210 214 216 219 220 220 224 229 232 235 236 234 231 229 230 231 230 232 233 235 240 245 247 249 251 252 250 246 244 242 238
253 248 243 241 242 243 241 238 235 233 230 229 236 250 253 238 223 214 217 219 217 218 216 215 218 219 214 207 207 211 213 214 217 219 222 225 225 227 232 235 238 239 237 232 230 232 235 235 236 235 234 239 244 249 251 250 248 247 243 240 238 235
257 250 242 240 241 244 242 237 234 231 226 225 232 249 263 250 234 221 215 213 213 212 212 215 221 218 213 211 212 215 219 220 222 225 227 230 231 233 234 236 238 241 240 236 233 234 237 238 237 235 235 237 242 247 251 250 246 243 238 235 234 231
Height
5841 5842 5844 5844 5844 5845 5845 5844 5844 5843 5843 5843 5843 5843 5842 5842 5842 5842 5841 5841 5841 5841 5841 5840 5841 5841 5841 5840 5839 5839 5839 5838 5838 5838 5837 5836 5835 5835 5835 5834 5834 5834 5834 5835 5835 5835 5835 5835 5834 5833 5833 5832 5833 5833 5833 5833 5832 5832 5832 5832 5832 5832
5840 5841 5842 5842 5841 5842 5842 5842 5841 5840 5840 5840 5840 5840 5840 5840 5840 5840 5840 5840 5840 5840 5839 5839 5839 5839 5839 5839 5837 5837 5838 5837 5837 5837 5836 5835 5834 5834 5834 5833 5833 5833 5834 5834 5834 5833 5833 5834 5834 5833 5832 5832 5832 5832 5832 5832 5832 5832 5831 5831 5831 5831
5838 5839 5840 5839 5839 5840 5840 5839 5839 5838 5838 5838 5838 5838 5838 5839 5839 5839 5839 5839 5838 5838 5838 5838 5838 5838 5838 5837 5836 5836 5836 5836 5836 5835 5834 5834 5833 5833 5833 5832 5833 5833 5833 5833 5832 5832 5832 5832 5833 5832 5832 5832 5832 5831 5831 5831 5831 5831 5831 5830 5830 5831
5836 5836 5837 5838 5839 5839 5838 5838 5837 5836 5835 5835 5835 5835 5836 5837 5837 5837 5837 5837 5837 5837 5837 5836 5836 5836 5836 5836 5835 5835 5835 5835 5835 5834 5834 5833 5833 5832 5832 5832 5832 5832 5832 5832 5831 5830 5831 5832 5832 5832 5831 5831 5831 5830 5830 5830 5830 5830 5830 5830 5830 5830
5836 5835 5836 5837 5837 5837 5837 5836 5835 5834 5833 5833 5833 5833 5834 5835 5836 5836 5836 5835 5835 5835 5835 5835 5835 5835 5835 5834 5834 5834 5834 5834 5833 5833 5833 5832 5832 5831 5831 5831 5831 5831 5831 5830 5829 5829 5830 5831 5832 5832 5831 5831 5831 5830 5830 5830 5829 5829 5829 5829 5829 5829
5835 5834 5834 5835 5836 5836 5835 5834 5834 5832 5831 5830 5831 5832 5833 5834 5834 5834 5834 5834 5833 5833 5833 5833 5833 5833 5833 5833 5832 5832 5833 5832 5832 5832 5832 5831 5831 5830 5830 5830 5830 5830 5830 5829 5828 5828 5828 5830 5832 5832 5831 5830 5830 5829 5828 5829 5829 5828 5828 5828 5828 5828
5833 5832 5832 5833 5834 5833 5833 5832 5831 5830 5829 5828 5829 5830 5831 5831 5832 5832 5832 5832 5832 5832 5832 5831 5831 5832 5832 5831 5831 5831 5831 5831 5831 5831 5831 5830 5830 5829 5829 5829 5830 5830 5829 5828 5827 5827 5827 5829 5831 5832 5831 5829 5828 5827 5827 5827 5828 5828 5827 5827 5827 5827
5830 5831 5831 5831 5831 5830 5830 5829 5828 5828 5827 5826 5827 5827 5828 5829 5829 5830 5830 5829 5830 5830 5830 5830 5830 5830 5830 5830 5830 5830 5830 5830 5830 5830 5830 5829 5828 5828 5828 5828 5829 5829 5829 5828 5826 5825 5825 5827 5830 5832 5830 5828 5827 5826 5826 5826 5827 5827 5827 5826 5826 5826
5827 5828 5829 5830 5829 5828 5827 5826 5825 5825 5825 5824 5824 5825 5826 5826 5827 5827 5827 5827 5828 5828 5828 5828 5828 5828 5828 5828 5828 5828 5829 5829 5829 5829 5829 5828 5827 5827 5827 5827 5828 5829 5829 5827 5825 5824 5824 5826 5829 5830 5829 5827 5825 5825 5826 5826 5826 5826 5826 5825 5825 5825
5824 5825 5827 5827 5827 5826 5825 5824 5823 5823 5822 5822 5822 5822 5823 5823 5824 5824 5825 5826 5826 5826 5826 5826 5826 5826 5826 5827 5827 5827 5827 5827 5828 5828 5827 5827 5826 5825 5826 5826 5827 5828 5828 5826 5824 5824 5824 5826 5828 5828 5828 5826 5825 5825 5825 5825 5824 5825 5824 5824 5824 5824
5821 5822 5823 5824 5824 5823 5822 5821 5821 5820 5819 5819 5820 5820 5820 5821 5821 5822 5823 5823 5824 5824 5824 5824 5824 5824 5824 5825 5825 5825 5825 5826 5826 5826 5826 5825 5825 5824 5824 5825 5827 5827 5827 5824 5823 5823 5825 5826 5827 5827 5826 5825 5825 5825 5824 5823 5823 5823 5823 5823 5822 5822
5819 5819 5820 5820 5820 5820 5819 5818 5818 5817 5817 5817 5817 5818 5818 5819 5819 5820 5821 5821 5821 5822 5822 5822 5822 5822 5823 5823 5823 5824 5824 5825 5825 5825 5825 5824 5824 5823 5824 5825 5826 5826 5825 5823 5822 5823 5825 5825 5825 5825 5825 5825 5825 5824 5823 5823 5822 5822 5822 5822 5821 5821
5816 5815 5816 5817 5817 5817 5816 5815 5815 5815 5814 5814 5815 5816 5816 5816 5817 5818 5818 5818 5819 5819 5819 5820 5820 5821 5821 5821 5822 5822 5823 5823 5824 5824 5824 5823 5823 5822 5823 5824 5825 5825 5824 5823 5822 5823 5824 5824 5824 5824 5824 5825 5825 5824 5823 5822 5822 5821 5821 5820 5820 5819
5813 5813 5813 5814 5814 5814 5813 5813 5812 5812 5811 5811 5812 5813 5814 5814 5815 5816 5816 5816 5816 5816 5817 5817 5818 5818 5819 5820 5820 5821 5822 5822 5823 5823 5823 5822 5822 5821 5822 5823 5824 5824 5824 5822 5822 5823 5824 5824 5824 5823 5824 5824 5824 5823 5822 5822 5821 5821 5820 5819 5819 5818
5810 5809 5810 5810 5810 5811 5811 5810 5810 5809 5809 5809 5809 5810 5811 5812 5812 5813 5813 5814 5814 5814 5814 5815 5815 5816 5817 5818 5819 5819 5821 5821 5822 5822 5822 5822 5821 5820 5821 5822 5823 5824 5823 5822 5822 5822 5823 5823 5823 5823 5823 5823 5823 5822 5821 5821 5821 5820 5819 5818 5818 5817
5807 5806 5806 5807 5807 5808 5808 5807 5807 5806 5806 5805 5805 5806 5807 5808 5809 5809 5810 5811 5811 5812 5812 5812 5813 5814 5815 5816 5817 5818 5819 5820 5821 5821 5821 5820 5820 5819 5819 5820 5822 5823 5823 5822 5821 5822 5822 5823 5822 5822 5822 5822 5821 5820 5820 5820 5820 5819 5818 5817 5817 5816
5804 5803 5803 5803 5804 5805 5805 5804 5803 5803 5802 5802 5802 5802 5803 5805 5805 5806 5807 5809 5809 5810 5810 5810 5811 5812 5813 5814 5815 5817 5818 5819 5819 5819 5819 5819 5819 5818 5818 5819 5821 5822 5822 5821 5821 5821 5821 5821 5822 5822 5821 5821 5821 5820 5819 5819 5818 5818 5817 5817 5816 5815
5801 5800 5800 5800 5802 5802 5801 5801 5800 5800 5799 5798 5799 5799 5800 5801 5802 5803 5804 5806 5807 5808 5808 5808 5810 5811 5811 5812 5814 5815 5817 5818 5818 5818 5818 5818 5817 5817 5817 5818 5819 5820 5820 5821 5820 5820 5820 5821 5821 5821 5821 5821 5821 5819 5819 5818 5818 5817 5817 5816 5816 5815
5798 5798 5797 5797 5799 5798 5797 5798 5798 5798 5797 5796 5796 5797 5796 5797 5798 5800 5801 5803 5804 5805 5806 5806 5808 5809 5810 5811 5813 5815 5816 5817 5817 5817 5817 5817 5816 5816 5816 5816 5818 5819 5819 5819 5819 5819 5819 5820 5821 5821 5820 5820 5820 5819 5819 5819 5818 5817 5817 5817 5816 5815
5795 5795 5793 5793 5795 5795 5794 5795 5796 5795 5795 5794 5794 5794 5794 5794 5795 5797 5798 5800 5801 5803 5804 5805 5806 5808 5809 5811 5812 5813 5814 5815 5815 5815 5816 5816 5816 5815 5815 5815 5816 5817 5818 5818 5818 5818 5818 5819 5820 5820 5820 5820 5819 5819 5819 5818 5818 5817 5817 5816 5816 5814
5793 5792 5790 5789 5792 5793 5792 5793 5792 5792 5792 5791 5791 5791 5791 5791 5792 5794 5795 5797 5799 5801 5802 5803 5805 5806 5808 5809 5811 5812 5813 5813 5814 5814 5814 5815 5815 5814 5814 5814 5814 5815 5816 5817 5817 5817 5817 5818 5818 5819 5819 5819 5819 5819 5818 5818 5818 5817 5817 5816 5815 5814
5790 5789 5786 5786 5788 5789 5789 5790 5790 5789 5788 5788 5788 5788 5788 5789 5790 5791 5793 5796 5798 5800 5801 5802 5803 5805 5806 5807 5809 5810 5811 5811 5812 5813 5813 5813 5813 5813 5812 5812 5812 5813 5814 5815 5816 5816 5816 5817 5817 5817 5818 5818 5818 5818 5818 5818 5818 5817 5816 5816 5815 5814
5787 5786 5785 5784 5785 5786 5785 5786 5786 5786 5785 5785 5786 5786 5787 5787 5788 5789 5791 5794 5797 5799 5800 5801 5802 5803 5804 5805 5806 5807 5809 5809 5810 5811 5812 5811 5811 5811 5811 5811 5811 5811 5812 5814 5814 5814 5815 5815 5815 5816 5816 5817 5817 5817 5817 5817 5817 5817 5816 5816 5815 5814
5784 5784 5783 5782 5783 5783 5782 5783 5783 5783 5782 5782 5783 5784 5785 5786 5787 5788 5790 5792 5795 5797 5798 5799 5800 5801 5802 5803 5804 5806 5807 5807 5808 5809 5809 5810 5810 5810 5810 5810 5810 5811 5811 5812 5812 5812 5813 5814 5814 5814 5815 5815 5816 5816 5816 5816 5816 5816 5815 5815 5814 5814
5782 5782 5781 5780 5780 5780 5780 5781 5781 5781 5780 5780 5781 5781 5783 5785 5786 5787 5788 5790 5792 5794 5795 5797 5798 5799 5800 5802 5803 5804 5805 5806 5806 5807 5807 5808 5808 5809 5809 5809 5809 5810 5810 5811 5811 5811 5812 5812 5813 5813 5813 5814 5814 5814 5814 5815 5815 5814 5814 5814 5814 5813
5779 5779 5779 5778 5778 5777 5778 5779 5779 5779 5779 5779 5779 5780 5781 5783 5784 5785 5786 5788 5790 5792 5793 5795 5796 5797 5799 5800 5801 5802 5803 5804 5805 5805 5805 5806 5807 5807 5808 5807 5808 5808 5809 5810 5810 5811 5811 5811 5811 5811 5812 5812 5812 5812 5813 5813 5813 5813 5813 5813 5813 5813
5776 5777 5777 5776 5775 5775 5776 5777 5777 5777 5778 5778 5778 5779 5780 5781 5782 5784 5785 5786 5788 5790 5791 5792 5794 5795 5797 5798 5799 5800 5801 5802 5803 5803 5804 5804 5805 5806 5806 5806 5806 5807 5807 5808 5809 5809 5809 5810 5810 5810 5810 5810 5811 5811 5811 5811 5811 5811 5812 5812 5812 5812
5775 5775 5774 5773 5772 5772 5774 5775 5775 5776 5776 5776 5777 5778 5779 5780 5781 5782 5783 5785 5786 5788 5789 5790 5792 5793 5795 5797 5798 5799 5800 5800 5801 5802 5802 5803 5803 5804 5804 5804 5805 5805 5806 5807 5807 5807 5807 5808 5808 5808 5808 5808 5809 5809 5809 5809 5810 5810 5810 5810 5810 5811
5773 5774 5772 5770 5770 5771 5772 5774 5774 5775 5775 5774 5775 5776 5777 5778 5780 5781 5782 5783 5783 5785 5787 5788 5790 5791 5793 5794 5796 5797 5798 5799 5800 5801 5801 5801 5802 5802 5803 5803 5803 5804 5805 5805 5805 5805 5806 5806 5806 5806 5807 5807 5807 5808 5808 5808 5808 5809 5809 5809 5809 5809
5772 5772 5771 5770 5770 5771 5772 5772 5772 5773 5774 5773 5773 5774 5775 5776 5778 5780 5781 5781 5781 5783 5784 5786 5788 5789 5791 5792 5793 5794 5796 5797 5799 5799 5800 5800 5800 5801 5801 5801 5802 5803 5803 5804 5804 5804 5804 5805 5804 5805 5805 5806 5806 5807 5807 5807 5808 5808 5808 5808 5807 5808
5769 5769 5768 5768 5769 5770 5771 5771 5771 5772 5772 5772 5772 5772 5773 5774 5776 5778 5779 5779 5780 5781 5782 5783 5785 5787 5788 5789 5791 5792 5794 5795 5797 5797 5798 5798 5799 5800 5800 5800 5801 5801 5802 5802 5802 5802 5803 5803 5803 5803 5803 5804 5805 5805 5806 5806 5807 5807 5807 5807 5807 5807
5766 5766 5765 5765 5766 5767 5768 5769 5770 5771 5771 5771 5770 5770 5771 5771 5773 5775 5777 5777 5778 5779 5780 5781 5782 5784 5786 5787 5789 5790 5792 5793 5794 5795 5796 5796 5797 5798 5798 5798 5799 5800 5800 5800 5801 5801 5801 5802 5802 5802 5802 5803 5803 5804 5804 5805 5805 5806 5806 5806 5805 5806
5763 5763 5762 5762 5762 5764 5764 5765 5767 5768 5769 5770 5770 5769 5769 5769 5770 5772 5774 5775 5776 5777 5778 5779 5780 5782 5784 5785 5786 5787 5788 5790 5791 5792 5793 5794 5795 5796 5796 5797 5797 5797 5798 5798 5799 5799 5799 5800 5800 5800 5801 5801 5802 5802 5803 5803 5803 5804 5804 5804 5804 5804
5759 5759 5759 5759 5759 5760 5760 5760 5762 5765 5767 5770 5770 5768 5767 5767 5768 5769 5771 5773 5774 5775 5776 5777 5778 5780 5781 5782 5783 5784 5786 5787 5788 5789 5790 5791 5792 5793 5794 5794 5795 5795 5796 5797 5797 5797 5797 5798 5798 5799 5799 5800 5800 5801 5801 5801 5801 5801 5802 5802 5802 5803
5753 5753 5754 5754 5755 5756 5756 5756 5758 5761 5764 5767 5767 5765 5765 5765 5766 5767 5768 5770 5772 5773 5774 5775 5776 5777 5779 5780 5781 5782 5783 5785 5785 5786 5787 5789 5790 5791 5791 5792 5792 5793 5794 5795 5795 5795 5795 5796 5797 5797 5798 5798 5798 5799 5799 5799 5799 5799 5800 5800 5800 5801
5748 5748 5748 5748 5751 5753 5753 5753 5755 5757 5760 5763 5764 5763 5763 5763 5764 5764 5765 5767 5769 5770 5772 5773 5774 5776 5777 5778 5779 5780 5782 5783 5783 5784 5785 5786 5787 5788 5789 5790 5790 5791 5792 5792 5793 5793 5793 5794 5795 5795 5796 5796 5796 5797 5797 5798 5798 5797 5797 5798 5798 5799
5746 5746 5746 5746 5749 5751 5753 5753 5753 5754 5756 5759 5760 5760 5761 5761 5762 5763 5763 5764 5766 5768 5770 5771 5772 5774 5775 5776 5777 5779 5780 5781 5781 5782 5783 5784 5785 5786 5787 5788 5788 5789 5789 5790 5790 5791 5791 5792 5793 5793 5793 5794 5794 5795 5795 5796 5796 5796 5795 5796 5796 5797